SPKEA EDAH-EDAH

Flight info

Callsign SPKEA
Flight time 0h 32m
Altitude 1800
Route DCT EDAHE DCT BINKA/N0110A055 DCT 535105N0141947E 535353N0142131E/N0105A045 535509N0141606E/N0105A055 535353N0142131E/N0110A045 535105N0141947E DCT BINKA/N0090A015 DCT EDAHE DCT
Aircraft C172/L-SBDGR/C

Departure

Time 2026-04-17 12:15
Airport Heringsdorf Airport (EDAH)

Arrival

Time 2026-04-17 12:47
Airport Heringsdorf Airport (EDAH)
Time Latitude Longitude Altitude Speed Heading
2026-04-17 12:05 53.87886 14.14159 70 ft 0 kts 210°
2026-04-17 12:11 53.87883 14.14156 70 ft 1 kts 212°
2026-04-17 12:11 53.87881 14.14118 70 ft 5 kts 303°
2026-04-17 12:11 53.87913 14.14024 70 ft 12 kts 299°
2026-04-17 12:12 53.88005 14.13754 70 ft 13 kts 301°
2026-04-17 12:12 53.88033 14.13672 70 ft 0 kts 300°
2026-04-17 12:12 53.88045 14.13636 70 ft 11 kts 299°
2026-04-17 12:12 53.88096 14.13487 70 ft 13 kts 297°
2026-04-17 12:13 53.88153 14.13464 70 ft 6 kts 39°
2026-04-17 12:13 53.88158 14.13481 70 ft 0 kts 103°
2026-04-17 12:14 53.88135 14.13616 70 ft 33 kts 105°
2026-04-17 12:14 53.88029 14.14237 133 ft 64 kts 102°
2026-04-17 12:14 53.87901 14.14967 295 ft 66 kts 98°
2026-04-17 12:14 53.87771 14.15785 441 ft 75 kts 104°
2026-04-17 12:15 53.87620 14.16646 622 ft 77 kts 101°
2026-04-17 12:15 53.87479 14.17517 796 ft 78 kts 99°
2026-04-17 12:15 53.87342 14.18421 969 ft 79 kts 100°
2026-04-17 12:15 53.87141 14.19334 1003 ft 92 kts 120°
2026-04-17 12:16 53.86603 14.19924 986 ft 95 kts 165°
2026-04-17 12:16 53.85961 14.19789 984 ft 92 kts 204°
2026-04-17 12:16 53.85432 14.19205 987 ft 90 kts 219°
2026-04-17 12:16 53.84850 14.18980 1006 ft 95 kts 156°
2026-04-17 12:17 53.84248 14.19366 1130 ft 91 kts 155°
2026-04-17 12:17 53.83650 14.19698 1279 ft 91 kts 160°
2026-04-17 12:17 53.83049 14.20003 1427 ft 90 kts 160°
2026-04-17 12:17 53.82475 14.20372 1568 ft 91 kts 156°
2026-04-17 12:18 53.81831 14.20760 1548 ft 104 kts 155°
2026-04-17 12:18 53.81156 14.21220 1540 ft 107 kts 156°
2026-04-17 12:18 53.80416 14.21548 1538 ft 109 kts 165°
2026-04-17 12:18 53.79682 14.21815 1538 ft 109 kts 163°
2026-04-17 12:19 53.78951 14.22175 1537 ft 109 kts 159°
2026-04-17 12:19 53.78225 14.22547 1537 ft 109 kts 160°
2026-04-17 12:19 53.77513 14.23002 1537 ft 109 kts 153°
2026-04-17 12:19 53.76831 14.23478 1533 ft 103 kts 155°
2026-04-17 12:20 53.76232 14.24043 1533 ft 97 kts 128°
2026-04-17 12:20 53.75927 14.25013 1537 ft 93 kts 108°
2026-04-17 12:20 53.75796 14.26069 1541 ft 95 kts 91°
2026-04-17 12:20 53.75890 14.27201 1541 ft 99 kts 59°
2026-04-17 12:21 53.76389 14.27889 1642 ft 91 kts 23°
2026-04-17 12:21 53.76971 14.28235 1781 ft 86 kts 18°
2026-04-17 12:21 53.77528 14.28542 1927 ft 83 kts 18°
2026-04-17 12:21 53.78079 14.28852 2077 ft 82 kts 18°
2026-04-17 12:22 53.78579 14.29265 2222 ft 81 kts 30°
2026-04-17 12:22 53.79049 14.29762 2368 ft 80 kts 31°
2026-04-17 12:22 53.79556 14.30145 2524 ft 79 kts 16°
2026-04-17 12:22 53.80053 14.30368 2765 ft 70 kts 13°
2026-04-17 12:23 53.80490 14.30591 2999 ft 63 kts 20°
2026-04-17 12:23 53.80887 14.30871 3218 ft 61 kts 20°
2026-04-17 12:23 53.81266 14.31130 3459 ft 56 kts 19°
2026-04-17 12:23 53.81618 14.31365 3653 ft 57 kts 15°
2026-04-17 12:24 53.82021 14.31527 3818 ft 63 kts
2026-04-17 12:24 53.82467 14.31724 3980 ft 70 kts 15°
2026-04-17 12:24 53.82952 14.31987 4120 ft 78 kts 17°
2026-04-17 12:24 53.83496 14.32312 4231 ft 87 kts 17°
2026-04-17 12:25 53.84074 14.32661 4377 ft 89 kts 17°
2026-04-17 12:25 53.84667 14.32994 4528 ft 90 kts 14°
2026-04-17 12:25 53.85266 14.33280 4678 ft 90 kts 14°
2026-04-17 12:25 53.85867 14.33625 4828 ft 91 kts 19°
2026-04-17 12:26 53.86457 14.33999 4961 ft 92 kts 16°
2026-04-17 12:26 53.87076 14.34345 5087 ft 93 kts 18°
2026-04-17 12:26 53.87682 14.34719 5211 ft 94 kts 18°
2026-04-17 12:26 53.88296 14.35136 5336 ft 94 kts 20°
2026-04-17 12:27 53.88903 14.35561 5455 ft 95 kts 20°
2026-04-17 12:27 53.89537 14.36008 5496 ft 99 kts 21°
2026-04-17 12:27 53.90162 14.36155 5481 ft 90 kts 344°
2026-04-17 12:27 53.90667 14.35501 5490 ft 94 kts 314°
2026-04-17 12:28 53.91056 14.34604 5487 ft 97 kts 300°
2026-04-17 12:28 53.91238 14.33474 5329 ft 103 kts 287°
2026-04-17 12:28 53.91375 14.32273 5155 ft 106 kts 280°
2026-04-17 12:28 53.91436 14.31026 4976 ft 106 kts 278°
2026-04-17 12:29 53.91419 14.29771 4762 ft 110 kts 268°
2026-04-17 12:29 53.91462 14.28467 4515 ft 112 kts 281°
2026-04-17 12:29 53.91565 14.27181 4557 ft 110 kts 281°
2026-04-17 12:29 53.91680 14.25915 4556 ft 103 kts 286°
2026-04-17 12:30 53.91851 14.24812 4556 ft 91 kts 289°
2026-04-17 12:30 53.92054 14.23853 4557 ft 83 kts 310°
2026-04-17 12:30 53.92515 14.23403 4562 ft 76 kts
2026-04-17 12:30 53.92873 14.23969 4567 ft 76 kts 66°
2026-04-17 12:31 53.92854 14.24894 4623 ft 84 kts 101°
2026-04-17 12:31 53.92652 14.25865 4780 ft 90 kts 105°
2026-04-17 12:31 53.92424 14.26873 4933 ft 93 kts 105°
2026-04-17 12:31 53.92164 14.27891 5094 ft 96 kts 115°
2026-04-17 12:32 53.91838 14.28866 5291 ft 93 kts 112°
2026-04-17 12:32 53.91541 14.29821 5471 ft 93 kts 112°
2026-04-17 12:32 53.91256 14.30880 5524 ft 106 kts 108°
2026-04-17 12:32 53.90963 14.32091 5516 ft 116 kts 107°
2026-04-17 12:33 53.90670 14.33331 5506 ft 110 kts 107°
2026-04-17 12:33 53.90389 14.34508 5506 ft 106 kts 107°
2026-04-17 12:33 53.90093 14.35651 5506 ft 104 kts 110°
2026-04-17 12:33 53.89786 14.36742 5506 ft 102 kts 112°
2026-04-17 12:34 53.89260 14.37522 5503 ft 102 kts 158°
2026-04-17 12:34 53.88605 14.37278 5441 ft 102 kts 201°
2026-04-17 12:34 53.87912 14.36724 5201 ft 117 kts 208°
2026-04-17 12:34 53.87209 14.35998 4957 ft 122 kts 223°
2026-04-17 12:35 53.86598 14.35077 4694 ft 112 kts 221°
2026-04-17 12:35 53.86001 14.34275 4492 ft 111 kts 223°
2026-04-17 12:35 53.85360 14.33518 4546 ft 117 kts 209°
2026-04-17 12:35 53.84628 14.32832 4547 ft 122 kts 208°
2026-04-17 12:37 53.79163 14.29456 4542 ft 110 kts 200°
2026-04-17 12:37 53.78452 14.29034 4543 ft 108 kts 200°
2026-04-17 12:38 53.77703 14.28582 4550 ft 119 kts 200°
2026-04-17 12:38 53.76922 14.28104 4540 ft 116 kts 201°
2026-04-17 12:38 53.76181 14.27651 4547 ft 110 kts 201°
2026-04-17 12:38 53.75503 14.27139 4483 ft 110 kts 220°
2026-04-17 12:39 53.75098 14.25991 4184 ft 120 kts 263°
2026-04-17 12:39 53.75219 14.24659 3874 ft 108 kts 296°
2026-04-17 12:39 53.75625 14.23744 3628 ft 89 kts 322°
2026-04-17 12:39 53.76147 14.23263 3320 ft 87 kts 341°
2026-04-17 12:40 53.76702 14.22932 3068 ft 84 kts 341°
2026-04-17 12:40 53.77241 14.22611 2814 ft 82 kts 348°
2026-04-17 12:40 53.77803 14.22398 2558 ft 82 kts 346°
2026-04-17 12:40 53.78341 14.22106 2308 ft 83 kts 343°
2026-04-17 12:41 53.78861 14.21717 2096 ft 79 kts 338°
2026-04-17 12:41 53.79355 14.21392 1935 ft 74 kts 343°
2026-04-17 12:41 53.79884 14.21138 1797 ft 83 kts 345°
2026-04-17 12:41 53.80445 14.20800 1663 ft 86 kts 342°
2026-04-17 12:42 53.81014 14.20455 1537 ft 87 kts 344°
2026-04-17 12:42 53.81583 14.20101 1412 ft 88 kts 341°
2026-04-17 12:42 53.82147 14.19722 1286 ft 88 kts 341°
2026-04-17 12:42 53.82713 14.19342 1161 ft 88 kts 342°
2026-04-17 12:43 53.83285 14.19010 1083 ft 88 kts 343°
2026-04-17 12:43 53.83888 14.18658 1100 ft 93 kts 344°
2026-04-17 12:43 53.84472 14.18344 1025 ft 85 kts 346°
2026-04-17 12:43 53.85039 14.18033 1030 ft 84 kts 345°
2026-04-17 12:44 53.85560 14.17572 1044 ft 88 kts 322°
2026-04-17 12:44 53.85912 14.16711 1072 ft 90 kts 294°
2026-04-17 12:44 53.86116 14.15710 1076 ft 91 kts 290°
2026-04-17 12:44 53.86301 14.14688 1066 ft 91 kts 290°
2026-04-17 12:45 53.86469 14.13658 1076 ft 90 kts 287°
2026-04-17 12:45 53.86613 14.12633 1095 ft 90 kts 288°
2026-04-17 12:45 53.86779 14.11602 1071 ft 94 kts 288°
2026-04-17 12:45 53.86940 14.10555 942 ft 90 kts 289°
2026-04-17 12:46 53.87281 14.09804 847 ft 76 kts 337°
2026-04-17 12:46 53.87782 14.09775 717 ft 74 kts 23°
2026-04-17 12:46 53.88195 14.10168 660 ft 66 kts 41°
2026-04-17 12:46 53.88426 14.10876 571 ft 72 kts 71°
2026-04-17 12:47 53.88425 14.11753 451 ft 80 kts 98°
2026-04-17 12:47 53.88287 14.12682 275 ft 81 kts 103°
2026-04-17 12:47 53.88156 14.13492 90 ft 66 kts 102°
2026-04-17 12:47 53.88064 14.14068 70 ft 33 kts 106°
2026-04-17 12:48 53.88037 14.14198 70 ft 8 kts 82°
2026-04-17 12:48 53.88051 14.14144 70 ft 12 kts 277°
2026-04-17 12:48 53.88076 14.13984 70 ft 15 kts 287°
2026-04-17 12:48 53.88039 14.13887 70 ft 9 kts 177°
2026-04-17 12:49 53.87988 14.13890 70 ft 5 kts 176°
2026-04-17 12:49 53.87940 14.13942 70 ft 12 kts 116°
2026-04-17 12:49 53.87898 14.14068 70 ft 12 kts 120°
2026-04-17 12:49 53.87857 14.14190 70 ft 12 kts 120°
2026-04-17 12:50 53.87814 14.14319 70 ft 11 kts 120°
2026-04-17 12:50 53.87772 14.14428 70 ft 10 kts 136°
2026-04-17 12:50 53.87740 14.14460 70 ft 0 kts 53°
2026-04-17 12:50 53.87747 14.14463 70 ft 0 kts